Regional Weather Roundup
Issued by NWS

Home | Current Version | Previous Version | Graphics & Text | Print | Product List | Glossary On
Versions: 1 2 3 4 5 6 7 8 9 10 11 12 13 14 15 16 17 18 19 20 21 22 23 24 25 26 27 28 29 30 31 32 33 34 35 36 37 38 39 40 41 42 43 44 45 46 47 48 49 50
000
ASUS43 KDMX 290101
RWRIA

WEATHER ROUNDUP FOR IOWA
NATIONAL WEATHER SERVICE DES MOINES IA
800 PM CDT TUE MAR 28 2017

NOTE: "FAIR" INDICATES FEW OR NO CLOUDS BELOW 12,000 FEET WITH NO
SIGNIFICANT WEATHER AND/OR OBSTRUCTIONS TO VISIBILITY.

* - THESE STATIONS ARE NOT NWS STATIONS...THUS NOT UNDER NWS
QUALITY CONTROL.  THEY ALSO DO NOT REPORT WEATHER SUCH
AS PRECIPITATION OR FOG.

IAZ001>003-012>014-020>022-031>034-043>046-290200-
   NORTHWEST IOWA

CITY           SKY/WX    TMP DP  RH WIND       PRES   REMARKS
CARROLL *      CLOUDY    48  46  93 SE7       30.13R
CHEROKEE *     CLOUDY    51  42  71 SE10      30.13R
DENISON *      CLOUDY    48  43  81 E7        30.14R
LE MARS *      CLOUDY    55  37  50 E9        30.12R
ORANGE CITY *  CLOUDY    54  41  62 E6        30.12R
SHELDON *      CLOUDY    52  39  62 E8        30.12R
SIOUX CITY     MOCLDY    53  43  68 S10       30.11R
SPENCER        CLOUDY    52  40  63 E6        30.14R
STORM LAKE *   CLOUDY    48  41  76 SE10      30.13R
$$

IAZ055>058-069>071-079>083-090>094-290200-
   SOUTHWEST IOWA

CITY           SKY/WX    TMP DP  RH WIND       PRES   REMARKS
ATLANTIC *     CLOUDY    50  43  76 NE7       30.11S
AUDUBON *      CLOUDY    48  43  81 E7        30.13S
CLARINDA *     CLOUDY    52  46  82 NE9       30.09F
COUNCIL BLFS * CLOUDY    48  45  87 NE8       30.09F
CRESTON *      CLOUDY    50  45  81 NE10      30.11R
HARLAN  *      CLOUDY    48  45  87 E12       30.15R
LAMONI         CLOUDY    51  45  79 E7        30.09S
RED OAK *      CLOUDY    50  45  81 NE9       30.08F
SHENANDOAH *   CLOUDY    50  45  81 NE8       30.08F
$$

IAZ047>049-059>061-072>074-084-290200-
   CENTRAL IOWA

CITY           SKY/WX    TMP DP  RH WIND       PRES   REMARKS
AMES           CLOUDY    46  43  89 S6        30.15R
ANKENY *       CLOUDY    50  43  76 E3        30.16R
BOONE *        CLOUDY    46  45  93 SE6       30.14R
CHARITON *     CLOUDY    50  45  81 NE5       30.13R
DES MOINES     CLOUDY    51  43  74 E5        30.14R
GRINNELL*      CLOUDY    48  44  86 E6        30.15R
KNOXVILLE *    CLOUDY    50  43  76 CALM      30.13R
MARSHALLTOWN   CLEAR     46  42  86 E3        30.14R
NEWTON *       CLOUDY    50  45  81 E9        30.14R
PELLA *        CLOUDY    50  44  78 E5        30.15R
PERRY *        CLOUDY    49  43  82 E6        30.15R
$$

IAZ004>006-015-016-023>025-035-036-290200-
   NORTH CENTRAL IOWA

CITY           SKY/WX    TMP DP  RH WIND       PRES   REMARKS
ALGONA *       PTCLDY    54  41  62 E6        30.14R
CLARION *      CLOUDY    50  45  81 E6        30.13R
ESTHERVILLE    CLOUDY    50  41  71 E6        30.14R
FORT DODGE *   CLOUDY    52  39  62 S6        30.14R
MASON CITY     CLEAR     47  37  68 E7        30.15R
FOREST CITY *    N/A     50  36  57 E3        30.14R
WEBSTER CITY * CLOUDY    48  45  87 S8        30.12R
IOWA FALLS *     N/A     48  44  83 S6        30.15R
$$

IAZ007>011-017>019-026>030-037>042-050>054-066-290200-
   NORTHEAST IOWA

CITY           SKY/WX    TMP DP  RH WIND       PRES   REMARKS
CEDAR RAPIDS   CLOUDY    47  43  86 E5        30.14R
CHARLES CITY * CLEAR     50  37  62 E7        30.15R
CLINTON *      CLEAR     44  40  85 SE5       30.17R
DECORAH *      CLEAR     52  37  58 E5        30.14R
DUBUQUE        CLEAR     43  38  82 CALM      30.15S
MONTICELLO *   CLEAR     46  39  76 NE6       30.16R
OELWEIN *      CLEAR     48  39  71 E8        30.16R
WATERLOO       CLEAR     47  37  68 E8        30.14R
$$

IAZ064-065-067-068-078-290200-
   EAST CENTRAL IOWA

CITY           SKY/WX    TMP DP  RH WIND       PRES   REMARKS
DAVENPORT      CLOUDY    47  40  76 E9        30.17R
IOWA CITY      CLOUDY    51  42  71 E10       30.16R
MUSCATINE *    CLOUDY    50  43  76 E10       30.15R
QUAD CITIES    CLOUDY    48  39  71 NE8       30.16R
$$

IAZ062-063-075>077-085>089-095>099-290200-
   SOUTHEAST IOWA

CITY           SKY/WX    TMP DP  RH WIND       PRES   REMARKS
BURLINGTON     CLOUDY    50  45  83 E7        30.12S
FAIRFIELD *    CLOUDY    50  46  87 NE6       30.13R
FORT MADISON * CLOUDY    50  50 100 NE3       30.13S
KEOKUK *       CLOUDY    50  46  87 E6        30.12R
OSKALOOSA *    CLOUDY    48  46  93 NE6       30.14R
CENTERVILLE *  CLOUDY    50  46  87 CALM      30.13R
OTTUMWA        CLOUDY    50  48  93 NE6       30.13R
WASHINGTON *   CLOUDY    48  48 100 E5        30.15R
$$

ABBREVIATIONS USED IN REMARKS
   TC - TEMPERATURES IN CELSIUS
  WCI - WIND CHILL INDEX
   HX - HEAT INDEX
  VSB - VISIBILITY
$$




USA.gov is the U.S. government's official web portal to all federal, state and local government web resources and services.